Home   Weather   Dublin   Past weeks
Flag for Ireland

Past Weather in Dublin, Ireland — Yesterday and Last 2 Weeks

Now
46 °F

Partly cloudy.


Feels Like: 40 °F
Forecast: 46 / 55 °F
Wind: 14 mph from West

Location: Dublin Airport

Current Time: Nov 13, 2018 at 2:43:57 am

Latest Report: Nov 13, 2018 at 2:00 am


Visibility: N/A

Pressure: 29.74 "Hg

Humidity: 87%

Dew Point: 43 °F

Location of DublinLocation

Past Weather in Dublin — Graph

°F

Dublin Temperature Yesterday

Maximum temperature yesterday: 54 °F (at 12:30 pm)
Minimum temperature yesterday: 46 °F (at 8:00 pm)
Average temperature yesterday: 49 °F

High & Low Weather Summary for the Past Weeks

 TemperatureHumidityPressure
High59 °F (Nov 3, 6:00 am)100% (Oct 29, 1:00 am)30.21 "Hg (Oct 29, 1:00 am)
Low25 °F (Oct 30, 5:30 am)43% (Oct 30, 1:00 pm)28.91 "Hg (Nov 9, 6:00 pm)
Average46 °F83%29.52 "Hg
* Reported Oct 29 1:00 am — Nov 13 1:30 am, Dublin. Weather by CustomWeather, © 2018

Note: Actual official high and low records may vary slightly from our data, if they occured in-between our weather recording intervals... More about our weather records

Advertising

Dublin Weather History for the Previous 24 Hours

Scroll right to see more
 ConditionsComfort  
Time TempWeatherWind HumidityBarometerVisibility
1:30 am
Tue, Nov 13
46 °FPartly cloudy.13 mph87%29.71 "HgN/A
1:00 am46 °FPartly cloudy.13 mph87%29.71 "HgN/A
12:30 am46 °FPassing clouds.10 mph87%29.68 "HgN/A
12:00 am46 °FPassing clouds.13 mph87%29.68 "HgN/A
11:30 pm
Mon, Nov 12
46 °FPassing clouds.13 mph87%29.65 "HgN/A
11:00 pm46 °FPassing clouds.12 mph87%29.62 "HgN/A
10:30 pm46 °FPassing clouds.10 mph87%29.62 "HgN/A
10:00 pm46 °FPassing clouds.12 mph93%29.59 "HgN/A
9:30 pm48 °FPartly cloudy.14 mph87%29.59 "HgN/A
9:00 pm46 °FPartly cloudy.12 mph87%29.56 "HgN/A
8:30 pm48 °FPassing clouds.14 mph82%29.56 "HgN/A
8:00 pm46 °FPassing clouds.14 mph87%29.53 "HgN/A
7:30 pm48 °FPartly cloudy.15 mph76%29.53 "HgN/A
7:00 pm48 °FPartly cloudy.14 mph76%29.50 "HgN/A
6:30 pm48 °FPartly cloudy.13 mph76%29.50 "HgN/A
6:00 pm48 °FPartly cloudy.13 mph76%29.50 "HgN/A
5:30 pm48 °FPassing clouds.13 mph76%29.50 "HgN/A
5:00 pm48 °FPassing clouds.12 mph82%29.47 "HgN/A
4:30 pm50 °FPartly sunny.13 mph71%29.47 "HgN/A
4:00 pm50 °FPartly sunny.10 mph76%29.47 "HgN/A
3:30 pm50 °FScattered clouds.16 mph76%29.47 "HgN/A
3:00 pm50 °FScattered clouds.14 mph76%29.47 "HgN/A
2:30 pm50 °FScattered clouds.18 mph76%29.47 "HgN/A
2:00 pm52 °FScattered clouds.18 mph72%29.47 "HgN/A
1:30 pm52 °FScattered clouds.17 mph72%29.47 "HgN/A
1:00 pm54 °FScattered clouds.16 mph63%29.47 "HgN/A
12:30 pm54 °FPartly sunny.15 mph67%29.47 "HgN/A
12:00 pm52 °FPartly sunny.18 mph72%29.47 "HgN/A
11:30 am52 °FPartly sunny.20 mph72%29.47 "HgN/A
11:00 am52 °FPartly sunny.18 mph72%29.47 "HgN/A
10:30 am50 °FPartly sunny.17 mph76%29.45 "HgN/A
10:00 am50 °FPartly sunny.16 mph76%29.45 "HgN/A
9:30 am50 °FPartly sunny.13 mph71%29.45 "HgN/A
9:00 am48 °FPartly sunny.12 mph76%29.45 "HgN/A
8:30 am50 °FBroken clouds.13 mph71%29.45 "HgN/A
8:00 am48 °FPartly sunny.10 mph82%29.45 "HgN/A
7:30 am48 °FPassing clouds.8 mph82%29.45 "HgN/A
7:00 am48 °FPassing clouds.12 mph82%29.45 "HgN/A
6:30 am48 °FPassing clouds.12 mph82%29.45 "HgN/A
6:00 am48 °FPassing clouds.12 mph82%29.45 "HgN/A
5:30 am48 °FPassing clouds.9 mph82%29.45 "HgN/A
5:00 am48 °FPassing clouds.9 mph82%29.42 "HgN/A
4:30 am48 °FPassing clouds.10 mph82%29.42 "HgN/A
4:00 am48 °FPassing clouds.12 mph82%29.42 "HgN/A
3:30 am48 °FPassing clouds.10 mph82%29.42 "HgN/A
3:00 am48 °FPassing clouds.10 mph82%29.42 "HgN/A
2:30 am48 °FPassing clouds.9 mph82%29.42 "HgN/A
2:00 am48 °FPassing clouds.12 mph82%29.42 "HgN/A
Weather by CustomWeather, © 2018

See weather overview